Regional Weather Roundup
Issued by NWS

Home | Current Version | Previous Version | Text Only | Print | Product List | Glossary On
Versions: 1 2 3 4 5 6 7 8 9 10 11 12 13 14 15 16 17 18 19 20 21 22 23 24 25 26 27 28 29 30 31 32 33 34 35 36 37 38 39 40 41 42 43 44 45 46 47 48 49 50
000
ASUS43 KDMX 291007
RWRIA

WEATHER ROUNDUP FOR IOWA
NATIONAL WEATHER SERVICE DES MOINES IA
500 AM CDT FRI AUG 29 2014

NOTE: "FAIR" INDICATES FEW OR NO CLOUDS BELOW 12,000 FEET WITH NO
SIGNIFICANT WEATHER AND/OR OBSTRUCTIONS TO VISIBILITY.

* - THESE STATIONS ARE NOT NWS STATIONS...THUS NOT UNDER NWS
QUALITY CONTROL.  THEY ALSO DO NOT REPORT WEATHER SUCH
AS PRECIPITATION OR FOG.

IAZ001>003-012>014-020>022-031>034-043>046-291100-
   NORTHWEST IOWA

CITY           SKY/WX    TMP DP  RH WIND       PRES   REMARKS
CARROLL *      CLOUDY    70  68  94 S9        29.84S
DENISON *      PTCLDY    70  68  94 SE13G20   29.80S
LE MARS *      MOCLDY    70  68  94 S5        29.79S
ORANGE CITY *  CLEAR     70  66  88 S5        29.79S
SHELDON *      PTCLDY    66  66 100 S8        29.79R
SIOUX CITY     MOCLDY    71  69  93 SE6       29.77F
SPENCER        MOCLDY    67  64  90 S12       29.81S
STORM LAKE *   CLEAR     66  66 100 S10       29.82S
$$

IAZ055>058-069>071-079>083-090>094-291100-
   SOUTHWEST IOWA

CITY           SKY/WX    TMP DP  RH WIND       PRES   REMARKS
ATLANTIC *     MOCLDY    66  66 100 E5        29.83F
AUDUBON *      CLEAR     68  66  94 CALM      29.86S
CLARINDA *     MOCLDY    72  70  94 CALM      29.83F
COUNCIL BLFS * PTCLDY    70  70 100 SE6       29.80S
CRESTON *      MOCLDY    66  66 100 SE8       29.86F
HARLAN  *      MOCLDY    68  68 100 SE7       29.86F
RED OAK *      MOCLDY    70  68  94 SE5       29.82S
SHENANDOAH *   MOCLDY    72  70  94 CALM      29.82R
$$

IAZ047>049-059>061-072>074-084-291100-
   CENTRAL IOWA

CITY           SKY/WX    TMP DP  RH WIND       PRES   REMARKS
AMES           MOCLDY    66  66 100 SE6       29.86R
ANKENY *       PTCLDY    66  66 100 SE6       29.85F
CHARITON *     PTCLDY    70  68  94 E6        29.87F FOG
DES MOINES     MOCLDY    69  65  86 SE8       29.85F
GRINNELL*      CLEAR     68  64  88 E7        29.89S
KNOXVILLE *    CLEAR     68  66  94 SE7       29.86F
MARSHALLTOWN   PTCLDY    66  65  96 SE8       29.86S
PELLA *        CLEAR     68  66  94 E5        29.88F
PERRY *          N/A     66  66 100 CALM      29.86S
$$

IAZ004>006-015-016-023>025-035-036-291100-
   NORTH CENTRAL IOWA

CITY           SKY/WX    TMP DP  RH WIND       PRES   REMARKS
ALGONA *       CLEAR     68  66  94 S15G22    29.83S
CLARION *      RAIN      68  66  94 S13       29.87R
ESTHERVILLE    MOCLDY    66  65  96 S10       29.81F
FORT DODGE *   CLOUDY    66  64  94 S8        29.87S
MASON CITY     CLOUDY    68  67  96 S8        29.86F
FOREST CITY *  MOCLDY    68  68 100 S10       29.84F
IOWA FALLS *     N/A     66  66 100 SE5       29.87R
$$

IAZ007>011-017>019-026>030-037>042-050>054-066-291100-
   NORTHEAST IOWA

CITY           SKY/WX    TMP DP  RH WIND       PRES   REMARKS
CEDAR RAPIDS   CLOUDY    69  68  96 E6        29.90F
CHARLES CITY * CLOUDY    68  68 100 S8        29.88S
CLINTON *      PTCLDY    68  64  88 SE6       29.95S
DECORAH *      DRIZZLE   68  68 100 CALM      29.88S
DUBUQUE        MOCLDY    67  67 100 SW6       29.94R FOG
MONTICELLO *   CLOUDY    68  68 100 CALM      29.92S
OELWEIN *      CLOUDY    68  68 100 S8        29.89R
WATERLOO       CLOUDY    67  65  93 S5        29.87R
$$

IAZ064-065-067-068-078-291100-
   EAST CENTRAL IOWA

CITY           SKY/WX    TMP DP  RH WIND       PRES   REMARKS
DAVENPORT      PTCLDY    70  67  90 S9        29.92F
IOWA CITY      MOCLDY    70  68  93 W6        29.93S
MT. PLEASANT * CLEAR     70  68  94 S8        29.90F FOG
MUSCATINE *    MOCLDY    70  68  94 SE7       29.90F
QUAD CITIES    PTCLDY    70  67  90 S8        29.91F
$$

IAZ062-063-075>077-085>089-095>099-291100-
   SOUTHEAST IOWA

CITY           SKY/WX    TMP DP  RH WIND       PRES   REMARKS
BURLINGTON     MOCLDY    71  69  93 S14       29.91F
FAIRFIELD *    CLOUDY    70  68  94 VRB5      29.90R
FORT MADISON * PTCLDY    72  72 100 S7        29.92S
KEOKUK *       MOCLDY    72  70  94 SE8       29.90F
OSKALOOSA *      N/A     68  68 100 E5        29.89F FOG
CENTERVILLE *  CLOUDY    68  68 100 E3        29.89F
OTTUMWA        PTCLDY    68  67  96 SE5       29.89F
WASHINGTON *   MOCLDY    70  70 100 CALM      29.91R
$$

ABBREVIATIONS USED IN REMARKS
   TC - TEMPERATURES IN CELSIUS
  WCI - WIND CHILL INDEX
   HX - HEAT INDEX
  VSB - VISIBILITY
$$



USA.gov is the U.S. government's official web portal to all federal, state and local government web resources and services.